Regional Weather Roundup
Issued by NWS

Home | Current Version | Previous Version | Graphics & Text | Print | Product List | Glossary On
Versions: 1 2 3 4 5 6 7 8 9 10 11 12 13 14 15 16 17 18 19 20 21 22 23 24 25 26 27 28 29 30 31 32 33 34 35 36 37 38 39 40 41 42 43 44 45 46 47 48 49 50
000
ASUS43 KDMX 191607
RWRIA

WEATHER ROUNDUP FOR IOWA
NATIONAL WEATHER SERVICE DES MOINES IA
1100 AM CDT SUN APR 19 2015

NOTE: "FAIR" INDICATES FEW OR NO CLOUDS BELOW 12,000 FEET WITH NO
SIGNIFICANT WEATHER AND/OR OBSTRUCTIONS TO VISIBILITY.

* - THESE STATIONS ARE NOT NWS STATIONS...THUS NOT UNDER NWS
QUALITY CONTROL.  THEY ALSO DO NOT REPORT WEATHER SUCH
AS PRECIPITATION OR FOG.

IAZ001>003-012>014-020>022-031>034-043>046-191700-
   NORTHWEST IOWA

CITY           SKY/WX    TMP DP  RH WIND       PRES   REMARKS
CARROLL *      MOSUNNY   57  57 100 NW8       29.69F FOG
CHEROKEE *     CLOUDY    54  54 100 NW12G18   29.71S
DENISON *      HVY RAIN  54  54 100 NW13      29.69S
LE MARS *      CLOUDY    54  50  87 NW17G25   29.76R
ORANGE CITY *  CLOUDY   N/A N/A N/A N20G26    29.73S
SHELDON *      CLOUDY    54  52  94 N20       29.72R
SIOUX CITY     LGT RAIN  53  47  79 N21G30    29.74F
SPENCER        CLOUDY    57  53  86 NW18      29.70S
STORM LAKE *   RAIN      54  54 100 NW15      29.70F VSB 1
$$

IAZ055>058-069>071-079>083-090>094-191700-
   SOUTHWEST IOWA

CITY           SKY/WX    TMP DP  RH WIND       PRES   REMARKS
ATLANTIC *     CLOUDY    57  57 100 NW13      29.69S
AUDUBON *      RAIN      55  54  94 NW6       29.70S
CLARINDA *     HVY RAIN  57  57 100 SW6       29.69S VSB 3/4
COUNCIL BLFS * LGT RAIN  52  52 100 NW20G26   29.71F
CRESTON *      DRIZZLE   59  59 100 CALM      29.68S
HARLAN  *      LGT RAIN  55  55 100 NW10      29.73F
LAMONI         CLOUDY    63  58  83 VRB5      29.66F
RED OAK *      LGT RAIN  55  55 100 NW13      29.70R VSB 1
SHENANDOAH *   RAIN      55  55 100 NW10      29.70S
$$

IAZ047>049-059>061-072>074-084-191700-
   CENTRAL IOWA

CITY           SKY/WX    TMP DP  RH WIND       PRES   REMARKS
AMES           CLOUDY    60  57  89 SE6       29.67F
ANKENY *       DRIZZLE   61  59  94 CALM      29.67F
CHARITON *     PTSUNNY   63  59  88 NE7       29.65F
DES MOINES     LGT RAIN  62  58  86 E3        29.67F
GRINNELL*      CLOUDY    59  57  94 E6        29.69S FOG
KNOXVILLE *    PTSUNNY   61  57  88 E6        29.65F
MARSHALLTOWN   PTSUNNY   58  54  86 E8        29.67F
PELLA *        CLOUDY    61  61 100 CALM      29.69S
PERRY *        CLOUDY    61  57  88 W5        29.68S
$$

IAZ004>006-015-016-023>025-035-036-191700-
   NORTH CENTRAL IOWA

CITY           SKY/WX    TMP DP  RH WIND       PRES   REMARKS
ALGONA *       CLOUDY    59  59 100 W10       29.69S
CLARION *      PTSUNNY   63  59  88 SW5       29.68S
ESTHERVILLE    CLOUDY    57  54  89 NW18      29.68F
FORT DODGE *   CLOUDY    59  54  82 CALM      29.69F
MASON CITY     CLOUDY    57  32  38 SE8       29.70R HAZE
FOREST CITY *  PTSUNNY   59  54  82 CALM      29.69R
IOWA FALLS *   CLOUDY    59  57  94 E3        29.69F FOG
$$

IAZ007>011-017>019-026>030-037>042-050>054-066-191700-
   NORTHEAST IOWA

CITY           SKY/WX    TMP DP  RH WIND       PRES   REMARKS
CEDAR RAPIDS   CLOUDY    55  51  86 CALM      29.68F
CHARLES CITY * CLOUDY    59  55  88 S8        29.70F
CLINTON *      PTSUNNY   66  46  48 SE13      29.72F
DECORAH *      CLOUDY    54  46  76 VRB7G14   29.70F
DUBUQUE        PTSUNNY   63  42  46 SE6       29.72F
MONTICELLO *   SUNNY     64  46  52 SE7       29.69F
OELWEIN *      PTSUNNY   55  50  82 SE10      29.71F
WATERLOO       LGT RAIN  56  50  80 SE7       29.69F
$$

IAZ064-065-067-068-078-191700-
   EAST CENTRAL IOWA

CITY           SKY/WX    TMP DP  RH WIND       PRES   REMARKS
DAVENPORT      PTSUNNY   66  46  48 SE8       29.69F
IOWA CITY      PTSUNNY   62  51  67 E5        29.69F
MT. PLEASANT * PTSUNNY   64  52  63 E6        29.67F
MUSCATINE *    SUNNY     68  50  52 E7        29.68F
QUAD CITIES    MOSUNNY   68  46  45 E9        29.68F
$$

IAZ062-063-075>077-085>089-095>099-191700-
   SOUTHEAST IOWA

CITY           SKY/WX    TMP DP  RH WIND       PRES   REMARKS
BURLINGTON     MOSUNNY   66  53  63 NE7       29.65F
FAIRFIELD *    LGT RAIN  63  55  77 N9        29.67F
FORT MADISON * MOSUNNY   66  54  63 E6        29.66F
KEOKUK *       SUNNY     64  54  68 SE5       29.64F
OSKALOOSA *    PTSUNNY   61  57  88 NE8       29.67F
CENTERVILLE *  SUNNY     64  61  88 NE9       29.66F
OTTUMWA        CLOUDY    62  58  86 E9        29.66F
WASHINGTON *   SUNNY     64  55  72 E6        29.68S
$$

ABBREVIATIONS USED IN REMARKS
   TC - TEMPERATURES IN CELSIUS
  WCI - WIND CHILL INDEX
   HX - HEAT INDEX
  VSB - VISIBILITY
$$



USA.gov is the U.S. government's official web portal to all federal, state and local government web resources and services.